[[{"header":{"parameterUnit":"m.s-1","parameterCategory":1,"la1":30.2991,"la2":30.254,"lo1":-89.0895,"lo2":-89.0444,"dy":0.0017,"dx":0.0017,"nx":28,"ny":28,"refTime":"2025-06-05T21:00:00:Z","depth":0,"parameterNumber":2,"parameterNumberName":"U-component_of_WINDS"},"data":[0,0,0,0,0,0,0,0,0,0,0,0,0,0,0,0,0,0,0,0,0,0,0,0,0,0,0,0,0,0,0,0,0,0,0,0,0,0,0,0,0,0,0,0,0,0,0,0,0,0,0,0,0,0,0,0,0,0,2.6228,2.6229,0,2.6344,2.6345,2.6346,2.6387,2.6386,2.6386,2.6385,2.6503,2.6507,2.651,0,0,0,0,0,0,0,0,0,0,0,0,0,2.6041,2.6044,2.6228,2.6229,2.623,2.6343,2.6345,2.6347,2.6387,2.6386,2.6386,2.6385,2.6502,2.6506,2.6511,0,0,0,0,0,0,0,0,0,0,0,0,0,2.6136,2.6045,2.6227,2.6264,2.6269,2.6343,2.6345,2.6347,2.6387,2.6386,2.6385,2.6385,2.6501,2.6506,2.6511,2.6557,0,0,2.6527,2.653,0,0,0,0,0,0,0,0,2.6131,2.6143,2.6257,2.6262,2.6267,2.635,2.6323,2.6418,2.6387,2.6342,2.6385,2.6384,2.6453,2.6462,2.6485,2.6563,2.6568,2.6528,2.6531,2.6533,2.6535,0,0,0,0,0,0,0,2.6124,2.6138,2.6273,2.6259,2.6265,2.6275,2.6288,2.6341,2.64,2.6346,2.6349,2.6362,2.6455,2.648,2.6488,2.657,2.6528,2.6533,2.6536,2.6538,2.6693,2.6694,0,0,0,0,0,0,2.6111,2.6132,2.627,2.6277,2.6196,2.6279,2.6293,2.6324,2.6399,2.641,2.6363,2.6364,2.6471,2.6482,2.6493,2.6553,2.6533,2.6538,2.6541,2.6692,2.6693,2.6694,0,0,0,0,0,0,2.6107,2.6123,2.6265,2.6206,2.6224,2.6283,2.6317,2.6327,2.6351,2.6412,2.6423,2.6377,2.6471,2.6485,2.6542,2.6558,2.6541,2.6546,2.6691,2.6693,2.6694,2.6673,0,0,0,0,0,0,2.6102,2.6121,2.6139,2.6206,2.6227,2.6312,2.6318,2.6329,2.6361,2.6363,2.6428,2.6438,2.6472,2.6533,2.6547,2.6565,2.655,2.669,2.6692,2.6693,2.6673,2.6674,2.6675,0,0,0,0,0,2.6095,2.6128,2.614,2.6156,2.6251,2.6313,2.6325,2.6363,2.6362,2.638,2.642,2.6436,2.6554,2.6539,2.6554,2.6574,2.6689,2.6691,2.6693,2.6672,2.6673,2.6674,0,0,0,0,0,0,2.6062,2.6138,2.6151,2.6208,2.6253,2.6319,2.6344,2.6363,2.641,2.641,2.6455,2.6469,2.6522,2.6554,2.6536,2.6624,2.6622,2.6628,2.6601,2.6603,2.6604,2.6595,2.6554,0,0,0,0,0,2.6061,2.6105,2.6169,2.6212,2.6234,2.6285,2.6313,2.6339,2.6388,2.6407,2.6451,2.6498,2.6545,2.6576,2.6623,2.6677,2.6693,2.6699,2.67,2.67,2.6704,2.6737,2.6741,2.6701,2.6701,2.6701,0,0,2.606,2.6107,2.6132,2.6207,2.6245,2.629,2.6301,2.6347,2.6381,2.6414,2.6471,2.6504,2.656,2.6616,2.6643,2.6644,2.6719,2.6703,2.6703,2.6707,2.6739,2.6743,2.6746,2.6703,2.6702,2.6702,0,0,2.6081,2.6121,2.6162,2.62,2.6259,2.6293,2.6302,2.6366,2.639,2.6447,2.6473,2.6514,2.6595,2.6634,2.6664,2.6701,2.6719,2.6715,2.672,2.6752,2.6755,2.6758,2.6772,2.6776,2.6719,2.6719,2.6719,0,2.6072,2.6141,2.618,2.6226,2.6259,2.6291,2.6334,2.6369,2.644,2.6462,2.6462,2.6565,2.6605,2.6671,2.668,2.6703,2.6717,2.6708,2.6751,2.6754,2.6758,2.6772,2.6777,2.6718,2.6719,2.6719,2.6719,0,2.6128,2.6174,2.6201,2.6269,2.6305,2.6348,2.6395,2.6426,2.6449,2.6482,2.6541,2.659,2.6648,2.6666,2.6687,2.6736,2.6735,2.6742,2.6742,2.676,2.6774,2.678,2.6717,2.6718,2.6718,2.6718,0,0,2.6131,2.6221,2.623,2.6262,2.633,2.6367,2.6412,2.647,2.6496,2.6544,2.6584,2.6652,2.666,2.6695,2.6721,2.6749,2.6777,2.6753,2.6755,2.6757,2.6834,2.6828,2.6834,2.6789,2.679,2.6791,2.683,0,2.6161,2.6244,2.6282,2.6348,2.6393,2.6425,2.6465,2.6511,2.6544,2.6586,2.6623,2.6671,2.6677,2.6699,2.6727,2.6767,2.6793,2.6765,2.6827,2.6828,2.6812,2.6841,2.6835,2.6869,2.6835,2.6836,2.6837,0,2.6208,2.6257,2.6327,2.6391,2.6411,2.6446,2.6502,2.6543,2.6596,2.6618,2.6657,2.6683,2.6733,2.6729,2.6798,2.6778,2.6806,2.6829,2.6832,2.6839,2.6834,2.685,2.6881,2.6886,2.6846,2.6845,2.6844,0,2.6204,2.6287,2.6341,2.6367,2.6442,2.6466,2.6499,2.6551,2.6584,2.6633,2.6655,2.6709,2.6738,2.678,2.682,2.6813,2.6886,2.6885,2.6907,2.6906,2.6921,2.6919,2.6957,2.6937,2.6937,2.6937,2.6937,0,2.6235,2.6277,2.6341,2.6373,2.6422,2.6465,2.6512,2.6547,2.6594,2.6634,2.6665,2.6702,2.6753,2.6797,2.6829,2.6882,2.6895,2.6915,2.6923,2.6912,2.691,2.6931,2.693,2.6939,2.6938,2.6938,2.6938,0,2.6239,2.6283,2.6344,2.641,2.6428,2.6461,2.6518,2.6552,2.6586,2.6638,2.6652,2.6707,2.676,2.6805,2.6874,2.6896,2.6952,2.6961,2.6934,2.6938,2.6957,2.6955,2.701,2.702,2.6993,2.6993,2.6993,0,2.6256,2.6289,2.636,2.6389,2.6422,2.6469,2.6502,2.6546,2.658,2.6644,2.667,2.6726,2.6773,2.6857,2.6903,2.6957,2.6968,2.6984,2.6976,2.6965,2.6969,2.6967,2.6971,2.6984,2.6984,2.6984,2.6984,0,2.6282,2.6302,2.6349,2.6405,2.6444,2.649,2.6536,2.6559,2.6612,2.6648,2.6704,2.674,2.6812,2.6868,2.6927,2.696,2.6982,2.6987,2.6995,2.6984,2.6968,2.6978,2.6936,2.6985,2.6985,2.6985,2.6985,2.6985,2.6294,2.6325,2.638,2.6432,2.6472,2.6515,2.655,2.659,2.6637,2.6699,2.6722,2.6779,2.6833,2.6914,2.6948,2.6994,2.6996,2.7007,2.701,2.7013,2.7012,2.696,2.7005,2.7005,2.7005,2.7005,2.7005,0,2.6321,2.6359,2.6406,2.6471,2.6512,2.6528,2.6581,2.6614,2.6664,2.6712,2.6758,2.6822,2.6877,2.6927,2.6984,2.7011,2.7022,2.7024,2.7023,2.7031,2.7006,2.6994,2.7015,2.7015,2.7015,2.7015,2.7015,2.7015,2.6341,2.6396,2.6423,2.6498,2.6535,2.6591,2.662,2.666,2.6699,2.6769,2.6815,2.6848,2.6897,2.6958,2.7009,2.7023,2.7042,2.7042,2.7058,2.7034,2.7032,2.7031,2.702,2.7046,2.7046,2.708,2.708,2.708]},{"header":{"parameterUnit":"m.s-1","parameterCategory":1,"la1":30.2991,"la2":30.254,"lo1":-89.0895,"lo2":-89.0444,"dy":0.0017,"dx":0.0017,"nx":28,"ny":28,"refTime":"2025-06-05T21:00:00:Z","depth":0,"parameterNumber":3,"parameterNumberName":"V-component_of_WINDS"},"data":[0,0,0,0,0,0,0,0,0,0,0,0,0,0,0,0,0,0,0,0,0,0,0,0,0,0,0,0,0,0,0,0,0,0,0,0,0,0,0,0,0,0,0,0,0,0,0,0,0,0,0,0,0,0,0,0,0,0,0.0741,0.074,0,0.0727,0.0727,0.0727,0.0709,0.0709,0.0709,0.0709,0.0697,0.0696,0.0696,0,0,0,0,0,0,0,0,0,0,0,0,0,0.0752,0.0752,0.0741,0.074,0.074,0.0727,0.0727,0.0727,0.0709,0.0709,0.0709,0.0708,0.0697,0.0696,0.0696,0,0,0,0,0,0,0,0,0,0,0,0,0,0.0744,0.0751,0.0741,0.073,0.0729,0.0727,0.0727,0.0727,0.071,0.0709,0.0709,0.0708,0.0697,0.0696,0.0696,0.0705,0,0,0.0696,0.0696,0,0,0,0,0,0,0,0,0.0744,0.0743,0.0732,0.0731,0.0729,0.072,0.0727,0.072,0.071,0.0717,0.0709,0.0708,0.0705,0.0704,0.0702,0.0704,0.0704,0.0696,0.0696,0.0696,0.0696,0,0,0,0,0,0,0,0.0745,0.0744,0.0735,0.0732,0.073,0.0726,0.0724,0.0725,0.0713,0.0716,0.0715,0.0714,0.0704,0.0703,0.0702,0.0704,0.0696,0.0696,0.0696,0.0696,0.0712,0.0712,0,0,0,0,0,0,0.0747,0.0744,0.0736,0.0735,0.0736,0.0726,0.0724,0.0723,0.0713,0.0711,0.0714,0.0713,0.0703,0.0702,0.0702,0.0711,0.0696,0.0696,0.0696,0.0711,0.0712,0.0712,0,0,0,0,0,0,0.0747,0.0746,0.0736,0.0739,0.0738,0.0726,0.0725,0.0723,0.0722,0.0712,0.071,0.0715,0.0702,0.0702,0.0704,0.071,0.0696,0.0696,0.0711,0.0711,0.0712,0.073,0,0,0,0,0,0,0.0747,0.0746,0.0749,0.0739,0.0738,0.0739,0.0726,0.0723,0.0721,0.072,0.0712,0.071,0.0702,0.0704,0.0704,0.071,0.0696,0.071,0.0711,0.0712,0.0729,0.0731,0.0733,0,0,0,0,0,0.0748,0.0755,0.0749,0.0749,0.0741,0.0739,0.0738,0.0729,0.0722,0.0725,0.0718,0.071,0.0709,0.0705,0.0704,0.071,0.071,0.0711,0.0712,0.0728,0.0731,0.0733,0,0,0,0,0,0,0.0767,0.0754,0.0747,0.0752,0.0747,0.0736,0.074,0.0732,0.0729,0.0728,0.0716,0.0715,0.0719,0.0714,0.0709,0.0718,0.0708,0.0709,0.0721,0.0723,0.0725,0.0727,0.0696,0,0,0,0,0,0.0771,0.0771,0.0759,0.0764,0.0762,0.0751,0.075,0.0743,0.0738,0.0736,0.0729,0.0725,0.0723,0.0723,0.0721,0.0727,0.0726,0.0731,0.0734,0.0735,0.0737,0.074,0.0743,0.0716,0.0716,0.0715,0,0,0.0781,0.0774,0.0774,0.0768,0.0763,0.0763,0.075,0.075,0.075,0.0736,0.0738,0.0733,0.0727,0.0731,0.0733,0.0728,0.0744,0.0737,0.0738,0.0739,0.0741,0.0744,0.0746,0.0716,0.0716,0.0716,0,0,0.0799,0.0793,0.0797,0.0792,0.0785,0.0777,0.0778,0.0769,0.0765,0.0766,0.0755,0.0755,0.0753,0.0749,0.0747,0.0763,0.0755,0.0762,0.0774,0.0778,0.078,0.0782,0.0788,0.079,0.0763,0.0763,0.0763,0,0.0813,0.0812,0.08,0.0801,0.0799,0.0784,0.0788,0.0784,0.0777,0.0776,0.077,0.0767,0.0762,0.0765,0.0769,0.0767,0.0768,0.0764,0.078,0.0782,0.0784,0.0789,0.0792,0.0764,0.0764,0.0764,0.0764,0,0.0829,0.0828,0.0832,0.0825,0.0822,0.0825,0.0814,0.0813,0.0805,0.0799,0.08,0.0794,0.079,0.079,0.0783,0.0793,0.079,0.0782,0.0773,0.0787,0.0793,0.0795,0.0766,0.0765,0.0765,0.0765,0,0,0.086,0.0845,0.0847,0.0843,0.0833,0.0833,0.0834,0.083,0.083,0.0825,0.0827,0.0825,0.0817,0.0815,0.0807,0.081,0.0823,0.0802,0.0802,0.0807,0.0834,0.084,0.0843,0.0818,0.0818,0.0818,0.0835,0,0.0877,0.0879,0.0867,0.0872,0.0872,0.0858,0.0859,0.0854,0.0847,0.0846,0.0839,0.0838,0.0828,0.0826,0.0828,0.0821,0.0829,0.082,0.082,0.082,0.0823,0.0846,0.0853,0.0869,0.0836,0.0837,0.0837,0,0.0897,0.0893,0.0897,0.0887,0.0886,0.0888,0.0883,0.0882,0.0875,0.087,0.0867,0.0858,0.0859,0.0849,0.085,0.0844,0.0843,0.084,0.084,0.0841,0.083,0.0848,0.0873,0.0876,0.084,0.084,0.0839,0,0.0921,0.0915,0.0918,0.0915,0.0903,0.0904,0.0899,0.0892,0.089,0.0886,0.0884,0.088,0.0879,0.0876,0.0866,0.0859,0.0869,0.0858,0.0866,0.0866,0.087,0.087,0.0896,0.0867,0.0867,0.0867,0.0867,0,0.0941,0.0945,0.0928,0.0929,0.0933,0.092,0.0924,0.0918,0.0911,0.0911,0.0898,0.0899,0.0885,0.0885,0.0877,0.088,0.0879,0.0875,0.0873,0.0877,0.0878,0.0877,0.0876,0.0868,0.0868,0.0867,0.0867,0,0.0969,0.0957,0.0959,0.0946,0.0943,0.0947,0.0936,0.0938,0.0929,0.093,0.0929,0.0917,0.0915,0.0905,0.0901,0.0896,0.0902,0.0897,0.0904,0.0903,0.0912,0.0911,0.094,0.0943,0.0911,0.0911,0.0911,0,0.0983,0.0986,0.0973,0.0972,0.0968,0.0966,0.0964,0.0951,0.0949,0.0941,0.0943,0.094,0.0937,0.0935,0.0926,0.0923,0.0919,0.0929,0.0918,0.0922,0.092,0.0921,0.0921,0.0932,0.0932,0.0933,0.0933,0,0.1011,0.1005,0.1002,0.0997,0.0994,0.099,0.0985,0.0984,0.097,0.0969,0.0966,0.0964,0.0959,0.0957,0.0952,0.0947,0.0938,0.0936,0.0938,0.0942,0.0947,0.0945,0.0911,0.0936,0.0935,0.0935,0.0935,0.0935,0.1033,0.1035,0.1026,0.1023,0.1017,0.1012,0.1013,0.1004,0.1002,0.0997,0.0989,0.0988,0.0981,0.0973,0.0969,0.0968,0.0963,0.0965,0.0966,0.0967,0.0969,0.0945,0.0967,0.0967,0.0967,0.0967,0.0966,0,0.1061,0.1054,0.1051,0.1044,0.1042,0.1032,0.1025,0.1024,0.1023,0.1017,0.1014,0.1011,0.1008,0.0999,0.0995,0.0996,0.0992,0.0996,0.0996,0.0995,0.0974,0.0973,0.0999,0.0999,0.0999,0.0999,0.0999,0.0999,0.1075,0.1077,0.107,0.1069,0.1062,0.106,0.1058,0.1053,0.1048,0.1045,0.1043,0.1036,0.1028,0.1024,0.1021,0.1018,0.1018,0.1023,0.1019,0.1,0.0997,0.0994,0.0993,0.1023,0.1023,0.1041,0.1041,0.1041]}]]